• în Republica Moldova
  • Lista ţărilor
  • Pe 7 zile
  • Temperatura apei
  • Hartă satelitară
  • Meteo pe hartă
  • Widget-uri
  • user-avatar
    Intrare

    Meteo pe oră la Yulara

    Astăzi, 19 Noiembrie, Duminică

    Timp Temperatura Precipitaţii Vânt Presiune Umiditate
    00:00 +35°C° 0 mm 1 m/s 714 mmHg 22%
    01:00 +35°C° 0 mm 2 m/s 713 mmHg 22%
    02:00 +35°C° 0 mm 2 m/s 713 mmHg 22%
    03:00 +34°C° 0 mm 2 m/s 714 mmHg 24%
    04:00 +34°C° 0,1 mm 3 m/s 714 mmHg 26%
    05:00 +33°C° 0,1 mm 5 m/s 714 mmHg 29%
    06:00 +33°C° 0,1 mm 6 m/s 714 mmHg 31%
    07:00 +33°C° 0,1 mm 6 m/s 714 mmHg 30%
    08:00 +33°C° 0,1 mm 5 m/s 715 mmHg 29%
    09:00 +33°C° 0,1 mm 5 m/s 715 mmHg 28%
    10:00 +35°C° 0 mm 4 m/s 715 mmHg 26%
    11:00 +37°C° 0 mm 4 m/s 714 mmHg 24%
    12:00 +38°C° 0 mm 3 m/s 714 mmHg 23%
    13:00 +40°C° 0 mm 4 m/s 714 mmHg 22%
    14:00 +41°C° 0 mm 4 m/s 713 mmHg 21%
    15:00 +41°C° 0 mm 5 m/s 713 mmHg 20%
    16:00 +40°C° 0,3 mm 6 m/s 713 mmHg 23%
    17:00 +39°C° 0,3 mm 6 m/s 713 mmHg 25%
    18:00 +38°C° 0,3 mm 7 m/s 713 mmHg 28%
    19:00 +36°C° 0,2 mm 6 m/s 713 mmHg 30%
    20:00 +35°C° 0,2 mm 5 m/s 713 mmHg 32%
    21:00 +34°C° 0,2 mm 3 m/s 714 mmHg 34%
    22:00 +34°C° 0,2 mm 3 m/s 714 mmHg 34%
    23:00 +34°C° 0,2 mm 2 m/s 714 mmHg 35%

    Mâine, 20 Noiembrie, Luni

    Timp Temperatura Precipitaţii Vânt Presiune Umiditate
    00:00 +34°C° 0,2 mm 2 m/s 714 mmHg 35%
    01:00 +33°C° 0 mm 3 m/s 714 mmHg 35%
    02:00 +32°C° 0 mm 4 m/s 714 mmHg 36%
    03:00 +30°C° 0 mm 4 m/s 714 mmHg 36%
    04:00 +30°C° 0 mm 4 m/s 714 mmHg 38%
    05:00 +29°C° 0 mm 3 m/s 714 mmHg 41%
    06:00 +29°C° 0 mm 3 m/s 714 mmHg 43%
    07:00 +30°C° 0 mm 3 m/s 715 mmHg 38%
    08:00 +33°C° 0 mm 3 m/s 715 mmHg 33%
    09:00 +35°C° 0 mm 3 m/s 716 mmHg 27%
    10:00 +36°C° 0 mm 3 m/s 715 mmHg 24%
    11:00 +38°C° 0 mm 3 m/s 715 mmHg 20%
    12:00 +39°C° 0 mm 2 m/s 714 mmHg 16%
    13:00 +41°C° 0 mm 4 m/s 714 mmHg 14%
    14:00 +42°C° 0 mm 5 m/s 713 mmHg 13%
    15:00 +42°C° 0 mm 6 m/s 713 mmHg 11%
    16:00 +42°C° 0 mm 6 m/s 713 mmHg 11%
    17:00 +41°C° 0 mm 7 m/s 713 mmHg 11%
    18:00 +41°C° 0 mm 7 m/s 713 mmHg 11%
    19:00 +40°C° 0 mm 7 m/s 713 mmHg 12%
    20:00 +38°C° 0 mm 7 m/s 713 mmHg 14%
    21:00 +36°C° 0 mm 7 m/s 714 mmHg 15%
    22:00 +35°C° 0 mm 7 m/s 714 mmHg 16%
    23:00 +34°C° 0 mm 6 m/s 714 mmHg 17%

    Poimâine, 21 Noiembrie, Marţi

    Timp Temperatura Precipitaţii Vânt Presiune Umiditate
    00:00 +33°C° 0 mm 6 m/s 714 mmHg 18%
    01:00 +33°C° 0 mm 6 m/s 714 mmHg 20%
    02:00 +32°C° 0 mm 6 m/s 713 mmHg 22%
    03:00 +30°C° 0 mm 5 m/s 713 mmHg 24%
    04:00 +30°C° 0 mm 5 m/s 713 mmHg 25%
    05:00 +29°C° 0 mm 5 m/s 713 mmHg 27%
    06:00 +29°C° 0 mm 4 m/s 714 mmHg 29%
    07:00 +32°C° 0 mm 4 m/s 714 mmHg 25%
    08:00 +34°C° 0 mm 5 m/s 714 mmHg 22%
    09:00 +36°C° 0 mm 5 m/s 715 mmHg 19%
    10:00 +37°C° 0 mm 5 m/s 714 mmHg 16%
    11:00 +39°C° 0 mm 5 m/s 714 mmHg 14%
    12:00 +41°C° 0 mm 4 m/s 714 mmHg 12%
    13:00 +41°C° 0 mm 5 m/s 713 mmHg 11%
    14:00 +42°C° 0 mm 6 m/s 713 mmHg 11%
    15:00 +44°C° 0 mm 7 m/s 712 mmHg 10%
    16:00 +43°C° 0 mm 7 m/s 712 mmHg 10%
    17:00 +41°C° 0 mm 7 m/s 712 mmHg 10%
    18:00 +41°C° 0 mm 7 m/s 712 mmHg 11%
    19:00 +39°C° 0 mm 7 m/s 713 mmHg 11%
    20:00 +38°C° 0 mm 6 m/s 713 mmHg 12%
    21:00 +36°C° 0 mm 6 m/s 713 mmHg 12%
    22:00 +35°C° 0 mm 5 m/s 713 mmHg 13%
    23:00 +34°C° 0 mm 5 m/s 713 mmHg 14%

    22 Noiembrie, Miercuri

    Timp Temperatura Precipitaţii Vânt Presiune Umiditate
    00:00 +33°C° 0 mm 5 m/s 712 mmHg 15%
    01:00 +33°C° 0 mm 4 m/s 712 mmHg 16%
    02:00 +32°C° 0 mm 4 m/s 712 mmHg 17%
    03:00 +30°C° 0 mm 4 m/s 712 mmHg 17%
    04:00 +30°C° 0 mm 5 m/s 712 mmHg 20%
    05:00 +29°C° 0 mm 6 m/s 713 mmHg 23%
    06:00 +29°C° 0 mm 8 m/s 713 mmHg 26%
    07:00 +31°C° 0 mm 8 m/s 714 mmHg 29%
    08:00 +32°C° 0 mm 8 m/s 714 mmHg 32%
    09:00 +34°C° 0 mm 8 m/s 715 mmHg 35%
    10:00 +35°C° 0 mm 7 m/s 714 mmHg 30%
    11:00 +38°C° 0 mm 6 m/s 714 mmHg 25%
    12:00 +39°C° 0 mm 5 m/s 713 mmHg 20%
    13:00 +40°C° 0 mm 5 m/s 713 mmHg 18%
    14:00 +40°C° 0 mm 4 m/s 712 mmHg 17%
    15:00 +40°C° 0 mm 3 m/s 712 mmHg 15%
    16:00 +40°C° 0 mm 4 m/s 712 mmHg 16%
    17:00 +40°C° 0 mm 4 m/s 712 mmHg 16%
    18:00 +39°C° 0 mm 5 m/s 712 mmHg 16%
    19:00 +38°C° 0 mm 7 m/s 712 mmHg 21%
    20:00 +37°C° 0 mm 8 m/s 713 mmHg 26%
    21:00 +34°C° 0 mm 10 m/s 713 mmHg 30%
    22:00 +33°C° 0 mm 10 m/s 713 mmHg 33%
    23:00 +31°C° 0 mm 11 m/s 714 mmHg 36%

    23 Noiembrie, Joi

    Timp Temperatura Precipitaţii Vânt Presiune Umiditate
    00:00 +29°C° 0 mm 11 m/s 714 mmHg 39%
    01:00 +27°C° 0 mm 11 m/s 714 mmHg 42%
    02:00 +26°C° 0 mm 10 m/s 714 mmHg 45%
    03:00 +24°C° 0 mm 10 m/s 714 mmHg 48%
    04:00 +23°C° 0 mm 10 m/s 714 mmHg 47%
    05:00 +23°C° 0 mm 9 m/s 715 mmHg 47%
    06:00 +22°C° 0 mm 9 m/s 716 mmHg 47%
    07:00 +23°C° 0 mm 9 m/s 716 mmHg 44%
    08:00 +23°C° 0 mm 8 m/s 716 mmHg 42%
    09:00 +24°C° 0 mm 8 m/s 717 mmHg 40%
    10:00 +27°C° 0 mm 7 m/s 716 mmHg 37%
    11:00 +28°C° 0 mm 7 m/s 716 mmHg 35%
    12:00 +30°C° 0 mm 6 m/s 716 mmHg 32%
    13:00 +32°C° 0 mm 5 m/s 715 mmHg 31%
    14:00 +33°C° 0 mm 5 m/s 714 mmHg 29%
    15:00 +34°C° 0 mm 4 m/s 714 mmHg 27%
    16:00 +34°C° 0 mm 5 m/s 714 mmHg 27%
    17:00 +34°C° 0 mm 5 m/s 714 mmHg 27%
    18:00 +33°C° 0 mm 5 m/s 714 mmHg 27%
    19:00 +32°C° 0 mm 6 m/s 715 mmHg 27%
    20:00 +30°C° 0 mm 7 m/s 715 mmHg 28%
    21:00 +29°C° 0 mm 7 m/s 716 mmHg 28%
    22:00 +28°C° 0 mm 7 m/s 715 mmHg 28%
    23:00 +27°C° 0 mm 7 m/s 715 mmHg 29%

    24 Noiembrie, Vineri

    Timp Temperatura Precipitaţii Vânt Presiune Umiditate
    00:00 +27°C° 0 mm 7 m/s 715 mmHg 29%
    01:00 +26°C° 0 mm 8 m/s 715 mmHg 31%
    02:00 +24°C° 0 mm 8 m/s 715 mmHg 33%
    03:00 +23°C° 0 mm 8 m/s 715 mmHg 35%
    04:00 +23°C° 0,1 mm 8 m/s 716 mmHg 40%
    05:00 +22°C° 0,1 mm 8 m/s 716 mmHg 45%
    06:00 +21°C° 0,1 mm 8 m/s 717 mmHg 49%
    07:00 +23°C° 0 mm 8 m/s 717 mmHg 45%
    08:00 +24°C° 0 mm 8 m/s 717 mmHg 41%
    09:00 +27°C° 0 mm 7 m/s 718 mmHg 37%
    10:00 +28°C° 0 mm 6 m/s 717 mmHg 34%
    11:00 +30°C° 0 mm 5 m/s 717 mmHg 31%
    12:00 +32°C° 0 mm 4 m/s 717 mmHg 29%
    13:00 +33°C° 0 mm 4 m/s 716 mmHg 28%
    14:00 +34°C° 0 mm 3 m/s 716 mmHg 27%
    15:00 +35°C° 0 mm 3 m/s 715 mmHg 26%
    16:00 +35°C° 0 mm 3 m/s 715 mmHg 26%
    17:00 +35°C° 0 mm 3 m/s 715 mmHg 26%
    18:00 +35°C° 0 mm 3 m/s 715 mmHg 26%
    19:00 +34°C° 0 mm 4 m/s 715 mmHg 27%
    20:00 +33°C° 0 mm 5 m/s 715 mmHg 28%
    21:00 +32°C° 0 mm 5 m/s 715 mmHg 29%
    22:00 +30°C° 0 mm 6 m/s 715 mmHg 28%
    23:00 +30°C° 0 mm 6 m/s 715 mmHg 28%
    Arată mai mult